Location: Observatoire de l'Aigle
(47.0607°N, 71.3152°W)
Time: 02:25:36
(UTC-04:00)

Amateur Radio Satellites - All Passes

Search period start: 24 July 2014 01:55
Search period end: 25 July 2014 01:55
Location: Observatoire de l'Aigle, 47.0607°N, 71.3152°W

Satellite Date Start Highest point End Downlink Frequencies (MHz)
Time Altitude Azimuth
Oscar 19 24 Jul 02:07:20 02:12:21 49° 99° (E) 02:17:21 437.125 CW, 437.150 USB
PCSat 24 Jul 02:09:12 02:14:32 63° 118° (ESE) 02:19:54 145.825 MHz
UOSAT-12 24 Jul 02:20:10 02:20:38 10° 254° (WSW) 02:21:06 437.025 FM, 437.400 FM
TMSAT-1 24 Jul 02:33:17 02:35:45 13° 87° (E) 02:38:12 436.925 FM
Oscar 16 24 Jul 02:34:39 02:39:50 87° 105° (ESE) 02:45:01 437.025 USB, Beacon 2401.1428
ITAMSAT 1 24 Jul 02:43:48 02:48:51 49° 100° (E) 02:53:51 435.822 SSB
Gurwin Techsat 1B 24 Jul 02:52:30 02:56:58 27° 93° (E) 03:01:23 435.225 FM
Lituanica SAT-1 24 Jul 02:53:53 02:55:43 23° 354° (N) 02:57:33 437.275 MHz beacon
ISS 24 Jul 02:59:15 03:02:37 78° 336° (NNW) 03:06:00 145.800 FM
AO-27 24 Jul 03:01:26 03:06:39 71° 103° (ESE) 03:11:48 436.795 MHz FM
OPAL 24 Jul 03:02:12 03:06:51 42° 65° (ENE) 03:11:31 ?
Uribyol 2 24 Jul 03:04:40 03:09:52 78° 104° (ESE) 03:15:01 436.500 FM
AO-Echo 24 Jul 03:08:06 03:13:20 84° 104° (ESE) 03:18:22 ?
Sapphire 24 Jul 03:18:45 03:23:57 46° 311° (NW) 03:29:12 437.095 MHz 1200 baud AX-25 AFSK
JAS-1B 24 Jul 03:38:39 03:48:32 79° 104° (ESE) 03:57:10 435.800 - 435.900 CW/SSB
Oscar 19 24 Jul 03:47:13 03:51:26 26° 298° (WNW) 03:55:39 437.125 CW, 437.150 USB
PCSat 24 Jul 03:53:44 03:58:22 28° 319° (NW) 04:03:02 145.825 MHz
AO-7 24 Jul 04:03:51 04:10:33 26° 92° (E) 04:17:10 29.400 - 29.500 MHz
TMSAT-1 24 Jul 04:11:06 04:16:26 90° 105° (ESE) 04:21:44 436.925 FM
Oscar 16 24 Jul 04:15:30 04:18:31 16° 303° (WNW) 04:21:32 437.025 USB, Beacon 2401.1428
ITAMSAT 1 24 Jul 04:23:50 04:28:05 26° 298° (WNW) 04:32:19 435.822 SSB
Lituanica SAT-1 24 Jul 04:26:55 04:28:53 29° 13° (NNE) 04:30:52 437.275 MHz beacon
Gurwin Techsat 1B 24 Jul 04:32:04 04:37:09 47° 292° (WNW) 04:42:12 435.225 FM
ISS 24 Jul 04:36:29 04:39:39 36° 356° (N) 04:42:48 145.800 FM
OPAL 24 Jul 04:41:42 04:45:53 27° 263° (W) 04:50:06 ?
AO-27 24 Jul 04:42:02 04:45:38 19° 302° (WNW) 04:49:13 436.795 MHz FM
Uribyol 2 24 Jul 04:45:25 04:48:45 18° 303° (WNW) 04:52:04 436.500 FM
AO-Echo 24 Jul 04:48:17 04:51:24 16° 304° (WNW) 04:54:27 ?
Uosat F 24 Jul 05:00:10 05:05:11 63° 102° (ESE) 05:10:08 435.120 FM
Sapphire 24 Jul 05:05:57 05:08:48 14° 334° (NNW) 05:11:39 437.095 MHz 1200 baud AX-25 AFSK
STRAND 1 24 Jul 05:17:16 05:21:04 21° 60° (ENE) 05:24:53 ?
JAS-1B 24 Jul 05:29:45 05:38:04 34° 306° (NW) 05:45:44 435.800 - 435.900 CW/SSB
PCSat 24 Jul 05:42:40 05:43:44 11° 344° (NNW) 05:44:49 145.825 MHz
TMSAT-1 24 Jul 05:52:33 05:55:38 16° 304° (NW) 05:58:42 436.925 FM
AO-7 24 Jul 05:55:48 06:04:11 79° 292° (WNW) 06:12:28 29.400 - 29.500 MHz
Lituanica SAT-1 24 Jul 05:59:40 06:01:44 41° 211° (SSW) 06:03:48 437.275 MHz beacon
KITSAT 1 24 Jul 06:05:58 06:11:50 23° 103° (ESE) 06:17:41 435.175 FM
Hamsat 24 Jul 06:11:04 06:14:48 28° 95° (E) 06:18:32 145.90 MHz
ISS 24 Jul 06:13:29 06:16:47 51° 16° (NNE) 06:20:05 145.800 FM
JAS-2 24 Jul 06:19:25 06:24:55 30° 91° (E) 06:29:51 435.800 - 435.900 CW/SSB, 435.910 FM
MaSat-1 24 Jul 06:29:04 06:33:33 27° 46° (NE) 06:38:00 437.345 MHz
Uosat F 24 Jul 06:39:53 06:43:32 20° 301° (WNW) 06:47:09 435.120 FM
STRAND 1 24 Jul 06:54:44 06:59:50 62° 258° (WSW) 07:04:58 ?
SO-67 24 Jul 07:12:22 07:14:56 19° 93° (E) 07:17:28 435.3500 MHz FM
JAS-1B 24 Jul 07:23:01 07:25:29 11° 330° (NNW) 07:27:55 435.800 - 435.900 CW/SSB
Hamsat 24 Jul 07:47:00 07:50:46 31° 292° (WNW) 07:54:32 145.90 MHz
AO-7 24 Jul 07:49:43 07:55:46 23° 314° (NW) 08:01:48 29.400 - 29.500 MHz
ISS 24 Jul 07:50:18 07:53:29 40° 215° (SW) 07:56:39 145.800 FM
KITSAT 1 24 Jul 07:58:04 08:06:12 90° 124° (ESE) 08:14:22 435.175 FM
Oscar 10/S400 24 Jul 08:02:27 08:54:15 16° 258° (WSW) 10:23:07 145.825 - 145.975 CW/USB, Beacon 145.810 USB
JAS-2 24 Jul 08:04:10 08:10:19 48° 294° (WNW) 08:15:45 435.800 - 435.900 CW/SSB, 435.910 FM
MaSat-1 24 Jul 08:06:04 08:11:21 63° 246° (WSW) 08:16:28 437.345 MHz
Sapphire 24 Jul 08:37:41 08:40:51 15° 28° (NNE) 08:44:00 437.095 MHz 1200 baud AX-25 AFSK
HO-68 24 Jul 08:43:03 08:48:25 22° 90° (E) 08:53:45 435.675 MHz FM
SO-67 24 Jul 08:44:59 08:48:04 30° 290° (WNW) 08:51:08 435.3500 MHz FM
Saudisat 1A 24 Jul 08:46:05 08:50:06 35° 118° (ESE) 08:54:08 436.775 MHz
PCSat 24 Jul 09:11:18 09:15:33 23° 37° (NE) 09:19:48 145.825 MHz
UKube-1 24 Jul 09:37:26 09:41:24 33° 97° (E) 09:45:20 145.840 MHz, 145.915 MHz
JAS-2 24 Jul 09:52:58 09:53:39 10° 317° (NW) 09:54:20 435.800 - 435.900 CW/SSB, 435.910 FM
KITSAT 1 24 Jul 09:55:34 10:02:40 32° 328° (NNW) 10:09:47 435.175 FM
Sapphire 24 Jul 10:20:13 10:25:33 53° 51° (NE) 10:30:51 437.095 MHz 1200 baud AX-25 AFSK
Saudisat 1A 24 Jul 10:25:36 10:29:41 36° 317° (NW) 10:33:48 436.775 MHz
Oscar 11 24 Jul 10:28:13 10:32:31 60° 101° (E) 10:36:48 145.825 FM, Beacon 2401.500 USB
HO-68 24 Jul 10:29:43 10:36:53 79° 290° (WNW) 10:44:00 435.675 MHz FM
FUNcube-1 24 Jul 10:35:17 10:38:49 26° 95° (E) 10:42:21 145.950 - 145.970 MHz USB
PCSat 24 Jul 10:54:13 10:59:41 86° 238° (WSW) 11:05:06 145.825 MHz
UKube-1 24 Jul 11:13:48 11:17:32 28° 295° (WNW) 11:21:13 145.840 MHz, 145.915 MHz
Oscar 19 24 Jul 11:50:50 11:53:46 16° 56° (ENE) 11:56:42 437.125 CW, 437.150 USB
KITSAT 1 24 Jul 11:55:22 12:01:00 20° 357° (N) 12:06:37 435.175 FM
Sapphire 24 Jul 12:04:09 12:08:42 28° 250° (WSW) 12:13:14 437.095 MHz 1200 baud AX-25 AFSK
Oscar 11 24 Jul 12:05:31 12:08:17 17° 299° (WNW) 12:11:02 145.825 FM, Beacon 2401.500 USB
Saudisat 1A 24 Jul 12:09:06 12:10:33 11° 340° (NNW) 12:12:01 436.775 MHz
FUNcube-1 24 Jul 12:11:35 12:15:15 31° 292° (WNW) 12:18:55 145.950 - 145.970 MHz USB
Oscar 16 24 Jul 12:16:45 12:20:54 26° 62° (ENE) 12:25:05 437.025 USB, Beacon 2401.1428
HO-68 24 Jul 12:18:45 12:23:33 20° 311° (NW) 12:28:21 435.675 MHz FM
ITAMSAT 1 24 Jul 12:27:59 12:31:13 17° 57° (ENE) 12:34:27 435.822 SSB
JAS-1B 24 Jul 12:36:59 12:44:03 26° 49° (NE) 12:51:34 435.800 - 435.900 CW/SSB
PCSat 24 Jul 12:39:34 12:42:16 14° 257° (WSW) 12:44:57 145.825 MHz
AO-27 24 Jul 12:44:49 12:48:50 23° 60° (ENE) 12:52:52 436.795 MHz FM
AO-Echo 24 Jul 12:46:26 12:50:34 24° 61° (ENE) 12:54:44 ?
Uribyol 2 24 Jul 12:47:38 12:51:47 25° 61° (ENE) 12:55:56 436.500 FM
AO-7 24 Jul 13:18:50 13:22:51 15° 36° (NE) 13:26:51 29.400 - 29.500 MHz
Oscar 19 24 Jul 13:27:18 13:32:25 87° 255° (WSW) 13:37:34 437.125 CW, 437.150 USB
RS-15 24 Jul 13:50:19 14:00:38 46° 112° (ESE) 14:10:45 29.354 - 29.394 USB, Beacon 29.352 USB
KITSAT 1 24 Jul 13:52:44 13:59:32 28° 27° (NNE) 14:06:17 435.175 FM
Oscar 16 24 Jul 13:55:03 14:00:00 49° 261° (W) 14:04:59 437.025 USB, Beacon 2401.1428
TMSAT-1 24 Jul 13:56:13 14:00:43 29° 63° (ENE) 14:05:14 436.925 FM
SO-50 24 Jul 14:01:26 14:05:49 58° 122° (ESE) 14:10:19 436.795 FM
ITAMSAT 1 24 Jul 14:04:50 14:10:04 83° 256° (WSW) 14:15:19 435.822 SSB
Gurwin Techsat 1B 24 Jul 14:16:25 14:21:35 55° 70° (ENE) 14:26:47 435.225 FM
AO-27 24 Jul 14:22:49 14:27:58 58° 259° (W) 14:33:09 436.795 MHz FM
AO-Echo 24 Jul 14:23:44 14:28:56 58° 260° (W) 14:34:13 ?
JAS-1B 24 Jul 14:24:20 14:33:04 81° 71° (ENE) 14:42:56 435.800 - 435.900 CW/SSB
Uribyol 2 24 Jul 14:25:52 14:30:57 53° 260° (W) 14:36:03 436.500 FM
Uosat F 24 Jul 14:39:48 14:43:14 19° 58° (ENE) 14:46:41 435.120 FM
UOSAT-12 24 Jul 14:52:15 14:55:11 17° 110° (ESE) 14:58:08 437.025 FM, 437.400 FM
AO-7 24 Jul 15:05:47 15:13:39 48° 59° (ENE) 15:21:32 29.400 - 29.500 MHz
Oscar 19 24 Jul 15:10:32 15:12:31 12° 274° (W) 15:14:31 437.125 CW, 437.150 USB
Saudisat 1A 24 Jul 15:30:54 15:33:46 17° 29° (NNE) 15:36:36 436.775 MHz
TMSAT-1 24 Jul 15:35:23 15:40:27 45° 262° (W) 15:45:33 436.925 FM
SO-50 24 Jul 15:42:54 15:46:43 26° 323° (NW) 15:50:36 436.795 FM
KITSAT 1 24 Jul 15:48:13 15:56:21 75° 52° (NE) 16:04:25 435.175 FM
ITAMSAT 1 24 Jul 15:48:29 15:50:22 12° 274° (W) 15:52:15 435.822 SSB
Gurwin Techsat 1B 24 Jul 15:57:46 16:01:54 23° 268° (W) 16:06:03 435.225 FM
RS-15 24 Jul 16:01:43 16:12:39 63° 316° (NW) 16:23:32 29.354 - 29.394 USB, Beacon 29.352 USB
Uosat F 24 Jul 16:16:28 16:21:30 70° 257° (WSW) 16:26:34 435.120 FM
JAS-1B 24 Jul 16:17:21 16:24:36 29° 274° (W) 16:32:38 435.800 - 435.900 CW/SSB
UOSAT-12 24 Jul 16:30:09 16:34:46 74° 309° (NW) 16:39:30 437.025 FM, 437.400 FM
JAS-2 24 Jul 16:33:45 16:39:53 27° 57° (ENE) 16:45:44 435.800 - 435.900 CW/SSB, 435.910 FM
OPAL 24 Jul 16:47:15 16:52:14 58° 104° (ESE) 16:57:14 ?
AO-7 24 Jul 16:58:30 17:06:27 47° 260° (W) 17:14:29 29.400 - 29.500 MHz
Hamsat 24 Jul 17:07:34 17:11:12 30° 67° (ENE) 17:14:52 145.90 MHz
Saudisat 1A 24 Jul 17:09:43 17:14:08 71° 51° (NE) 17:18:32 436.775 MHz
SO-50 24 Jul 17:28:19 17:28:54 10° 347° (NNW) 17:29:30 436.795 FM
KITSAT 1 24 Jul 17:44:25 17:51:03 29° 254° (WSW) 17:57:40 435.175 FM
SO-67 24 Jul 17:49:59 17:51:19 12° 62° (ENE) 17:52:40 435.3500 MHz FM
UOSAT-12 24 Jul 18:12:29 18:15:45 18° 331° (NNW) 18:19:02 437.025 FM, 437.400 FM
JAS-2 24 Jul 18:16:20 18:24:14 82° 256° (WSW) 18:31:43 435.800 - 435.900 CW/SSB, 435.910 FM
RS-15 24 Jul 18:18:05 18:27:38 33° 347° (NNW) 18:37:15 29.354 - 29.394 USB, Beacon 29.352 USB
Oscar 10/S400 24 Jul 18:23:07 18:30:29 13° 134° (SE) 18:38:44 145.825 - 145.975 CW/USB, Beacon 145.810 USB
OPAL 24 Jul 18:26:54 18:30:45 23° 302° (WNW) 18:34:38 ?
Hamsat 24 Jul 18:43:34 18:47:10 28° 265° (W) 18:50:48 145.90 MHz
Saudisat 1A 24 Jul 18:50:31 18:53:12 16° 249° (WSW) 18:55:53 436.775 MHz
STRAND 1 24 Jul 19:02:28 19:07:09 35° 97° (E) 19:11:48 ?
SO-50 24 Jul 19:11:23 19:11:42 10° 12° (NNE) 19:12:02 436.795 FM
HO-68 24 Jul 19:15:23 19:21:02 26° 54° (NE) 19:26:40 435.675 MHz FM
SO-67 24 Jul 19:20:33 19:23:57 56° 260° (W) 19:27:24 435.3500 MHz FM
JAS-2 24 Jul 20:04:59 20:10:09 19° 274° (W) 20:15:12 435.800 - 435.900 CW/SSB, 435.910 FM
RS-15 24 Jul 20:33:57 20:43:53 37° 22° (NNE) 20:53:59 29.354 - 29.394 USB, Beacon 29.352 USB
UKube-1 24 Jul 20:35:45 20:39:53 43° 69° (ENE) 20:44:03 145.840 MHz, 145.915 MHz
STRAND 1 24 Jul 20:41:44 20:46:19 34° 295° (WNW) 20:50:53 ?
SO-50 24 Jul 20:50:03 20:53:56 25° 36° (NE) 20:57:53 436.795 FM
HO-68 24 Jul 21:00:52 21:08:03 79° 254° (WSW) 21:15:16 435.675 MHz FM
Oscar 11 24 Jul 21:26:03 21:30:20 68° 74° (ENE) 21:34:38 145.825 FM, Beacon 2401.500 USB
FUNcube-1 24 Jul 21:34:37 21:38:31 33° 68° (ENE) 21:42:21 145.950 - 145.970 MHz USB
UOSAT-12 24 Jul 21:37:59 21:40:10 13° 20° (NNE) 21:42:21 437.025 FM, 437.400 FM
MaSat-1 24 Jul 22:00:57 22:04:33 32° 108° (ESE) 22:08:41 437.345 MHz
UKube-1 24 Jul 22:12:58 22:16:18 21° 267° (W) 22:19:39 145.840 MHz, 145.915 MHz
SO-50 24 Jul 22:30:13 22:34:56 69° 236° (SW) 22:39:43 436.795 FM
RS-15 24 Jul 22:47:02 22:58:06 81° 51° (NE) 23:09:31 29.354 - 29.394 USB, Beacon 29.352 USB
HO-68 24 Jul 22:52:52 22:56:54 16° 274° (W) 23:00:57 435.675 MHz FM
Oscar 11 24 Jul 23:04:57 23:07:00 13° 271° (W) 23:09:03 145.825 FM, Beacon 2401.500 USB
FUNcube-1 24 Jul 23:11:15 23:14:57 27° 265° (W) 23:18:37 145.950 - 145.970 MHz USB
UOSAT-12 24 Jul 23:17:11 23:21:38 39° 43° (NE) 23:26:03 437.025 FM, 437.400 FM
Lituanica SAT-1 24 Jul 23:35:32 23:36:39 13° 140° (SE) 23:37:46 437.275 MHz beacon
MaSat-1 24 Jul 23:38:02 23:41:53 33° 311° (NW) 23:46:16 437.345 MHz
ISS 25 Jul 00:35:56 00:37:36 13° 134° (SE) 00:39:16 145.800 FM
UOSAT-12 25 Jul 00:57:27 01:01:47 36° 242° (WSW) 01:06:03 437.025 FM, 437.400 FM
RS-15 25 Jul 01:00:11 01:09:25 33° 254° (WSW) 01:18:58 29.354 - 29.394 USB, Beacon 29.352 USB
Sapphire 25 Jul 01:06:08 01:10:24 25° 108° (ESE) 01:14:42 437.095 MHz 1200 baud AX-25 AFSK
Lituanica SAT-1 25 Jul 01:06:59 01:09:05 62° 339° (NNW) 01:11:12 437.275 MHz beacon
Oscar 19 25 Jul 01:36:16 01:40:36 26° 94° (E) 01:44:54 437.125 CW, 437.150 USB
PCSat 25 Jul 01:38:54 01:44:03 47° 115° (ESE) 01:49:15 145.825 MHz
